Tracking 31027 objects as of 19-Jul-2025
HD Live streaming from Space Station
objects crossing your sky now

ARIANE 2 DEB

Track ARIANE 2 DEB now!
10-day predictions


NORAD ID: 33584
Int'l Code: 1989-027E
Perigee: 385.4 km
Apogee: 21,565.0 km
Inclination: 6.0 °
Period: 378.9 minutes
Semi major axis: 17346 km
RCS: 0.3666 m2 (medium)
Launch date: April 2, 1989
Source: France (FR)
Launch site: FRENCH GUIANA (FRGUI)

Note: This is SATELLITE DEBRIS
Your satellite tracking list
IRIDIUM 106
Track 1 satellite(s)




NASA's NSSDC Master Catalog

Two Line Element Set (TLE):
1 33584U 89027E   25199.46859255  .00004932  00000-0  41793-2 0  9993
2 33584   5.9527 303.3044 6104980 204.0751 107.7638  3.80010796348705
Source of the keplerian elements: AFSPC